Timeline UpdatesTrip UpdatesNews PostsPvt PostsTravel TipsAdmin PostsConv PostsFollowed PostsChat RequestsBlog PostsPNR Posts

Disclaimer
Search
 
 
Sat Aug 23, 2014 07:05:46 ISTHomeTrainsΣChainsAtlasPNRForumGalleryNewsFAQTripsMembersLoginFeedback
No Recent News for this Train
Other Trains in the News **new
Latest...
Temporary Stop at Vindhyachal (BDL) for 2 min from 31/3/14-11/4/14 #1040164. ***Temporary Augmentation of 1 3AC coach from 1/4/14-24/6/14 #1043381
Wed Apr 02, 2014 (11:28PM)
⇐ Return Journey: Train# 15647

15648/Guwahati-Mumbai LTT Weekly Express

Jul 02 2013 (6:59AM)
Change Departure Station:
Change Arrival Station:
Post a Train Travel TipPost a Train Travel Tip **new
Post a Comment/Question/Picture/VideoPost a Comment/Question/Picture/Video
Pantry/Catering
✓ Pantry Car Avbl
✓ Catering Avbl
RSA - Rake Sharing
Rake/Coach Composition
2A-1, 3A-3, PC-1, SL-12, GEN-3, SLR-2= 22 coach
Loco
GHY-ET ET WDMx
News    PNR    Forum    Time-Table    Availability    Fare Chart    Map    Arr/Dep History    Trips    Gallery    ΣChains    X/O    Timeline    
Travel Time: 46h 25m    46 halts    Distance: 2397 km    Avg Speed: 51 km/hr
Type: Mail/Express
Zone: NFR/Northeast Frontier
Departs @ 21:35 (Avg 19m late)
Platform# ???
  T    
Dhupguri/DQG 
Arrives @ 20:00 +2 nights (Avg on time)
Platform# 5
    T  
Mumbai Lokmanya Tilak Terminus/LTT 

46 halts. 389 intermediate Stations between Dhupguri and Mumbai Lokmanya Tilak Terminus

Show ALL intermediate Stations  Show Old Time-Table

#CodeStation NameX/OArrivesAvgDepartsAvgHaltPFDay#KmSpeedElevZoneAddress
1GHYGuwahati (7)  -15:00+4--1-342.12660mNFRGuwahati, Assam
2KYQKamakhya Junction (4)  15:16+215:17+51m--1-335.14255mNFRDist - KAMRUP, Assam
3RNYRangiya Junction (5)X  16:15+1316:25+1110m--1-294.54658mNFRRangia, Assam
4BPRDBarpeta Road  17:49+117:50+31m--1-229.66649mNFRHowli, Assam
5NBQNew Bongaigaon Junction (4)  18:30+018:40+010m--1-185.57558mNFR783381., Assam
6NOQNew Alipurduar (2)  20:05+520:10+85m--1-78.83748mNFRDist - Alipurduar - 736121, West Bengal
7NCBNew Cooch Behar Junction (5)X  20:40-220:45+65m--1-60.28047mNFRDist : Cooch Behar-736101, West Bengal
8DQG»Dhupguri (2)»  21:30+1921:35+195m--10.03675mNFRDist - Jalpaiguri, West Bengal
9NJPNew Jalpaiguri Junction (8)  23:25+123:40+115m--165.375114mNFRCity-Siliguri . Dist-Jalpaiguri, West Bengal
10KNEKishanGanj (3)X  00:50+1000:55+105m--2152.74952mNFRKishanganj, Bihar
11MLDTMalda Town (5)X  03:55+904:10+715m--2300.86630mERDist - Malda, West Bengal
12NFKNew Farakka Junction (3)X  04:42+1004:44+102m12335.92632mERDist - Murshidabad, West Bengal
13BHWBarharwa Junction (3)X  05:26-405:30+04m12353.95036mERBarharwa, Jharkhand
14SBGSahibganj Junction (3)  06:35+506:43+88m22408.37138mERSahibganj, Jharkhand
15CLGKahalgaon (2)  07:20+1707:21+181m22452.24644mERBhagalpur, Bihar
16BGPBhagalpur Junction (6)  08:00+1908:15+1315m--2482.37549mERBhagalpur, Bihar
17SGGSultanGanj (3)  08:35+1508:36+161m--2507.25142mERSultanganj, Bihar
18BUPBariarpur (3)  08:57+1208:58+131m--2525.21342mERMunger, Bihar
19JMPJamalpur Junction (4)X  09:48+110:03+215m--2536.36959mERJamalpur 06344-243101, Bihar
20AHAAbhaipur (2)  10:22+1110:23+121m--2558.13352mERAbhaipur, Bihar
21KIULKiul Junction (5)X  11:05+011:10+25m--2581.11253mECRDist. Lakhisarai, Bihar
22LKRLuckeesarai Junction (2)X  11:17+411:18+51m242582.56552mECRLakhisarai, Bihar
23BRYABarhiya (3)  11:32+1011:33+111m--2597.65647mECRBarahiya, Bihar
24HTZHathidah Junction (2)  11:43+1111:44+121m22606.94650mECRMusahari, Bihar
25MKAMokama Junction (4)  11:55+1211:57+122m--2615.35248mECRPatna, Bihar
26BARHBarh (3)  12:27+612:28+81m--2641.24649mECRBarh, Bihar
27BKPBakhtiyarpur Junction (5)  12:52-112:54+22m--2659.55851mECRPatna, Bihar
28KOOKhusropur (2)X  13:09+313:10+61m--2674.05652mECRPatna, Bihar
29FUTFatwa (6)X  13:19+513:20+71m--2682.57353mECRPatna, Bihar
30PNCPatna Saheb (3)  13:30+1313:31+141m--2694.73159mECRPatna, Bihar
31PNBEPatna Junction (10)  13:50+1514:00+1410m--2704.63857mECRPatna 800001, Bihar
32DNRDanapur (5)X  14:15+3414:25+3410m--2714.08258mECRKhagaul, Bihar
33ARAAra Junction (3)  14:54+3914:59+385m--2753.510163mECRarrah( 06182-233411), Bihar
34DUREDumraon (3)  15:30+4815:31+491m--2805.73970mECRDumraon, Bihar
35BXRBuxar (3)  15:56+5416:00+534m--2822.07867mECRBuxar, Bihar
36DLNDildarnagar Junction (2)  16:28+4816:30+532m--2858.24972mECRDildarnagar, Uttar Pradesh
37MGSMughal Sarai Junction (8)  17:40+2717:55+2815m--2916.06483mECRMughalsarai 232101, Uttar Pradesh
38MZPMirzapur (3)X  18:54+1:2818:55+1:281m--2979.16188mNCRMirzapur, Uttar Pradesh
39COIChheoki Junction (3)  20:14+1:0220:15+1:051m--21059.66296mNCRDist.-Allahabad, Uttar Pradesh
40STASatna Junction (3)X  23:00+1:3523:10+1:3310m121229.579322mWCRSatna, Madhya Pradesh
41KTEKatni Junction (6)  00:25+1:5100:30+1:515m--31327.968387mWCRKatni, Madhya Pradesh
42JBPJabalpur Junction (4)X  01:50+3302:00+3310m131418.855416mWCRJabalpur, Madhya Pradesh
43PPIPipariya (3)X  05:13+1:2905:15+1:292m--31596.535338mWCRPiparia, Madhya Pradesh
44ETItarsi Junction (7)X07:10+1607:20+2610m--31663.789329mWCRItarsi 461111, Madhya Pradesh
45HDHarda (3)  08:11+1:1308:12+1:141m--31739.560289mWCRHarda, Madhya Pradesh
46KNWKhandwa Junction (5)X  10:00+2410:05+255m--31847.277310mCRKhandwa, Madhya Pradesh
47BAUBurhanpur (2)  10:59+5211:00+521m131916.065269mCRBurhanpur, Madhya Pradesh
48BSLBhusaval Junction (8)XO  11:50+3912:00+3810m--31970.588208mCRBhusaval 425201, Maharashtra
49MMRManmad Junction (6)  14:05+4214:10+415m332154.759580mCRManmad 423104, Maharashtra
50NKNasik Road (3)X  15:24+4215:25+401m332227.538563mCRNashik 422101, Maharashtra
51DVLDevlali (3)X  15:34-15:35-1m232233.230561mCRDist. Nashik 422401, Maharashtra
52IGPIgatpuri (4)X17:04+017:05+01m--32278.143589mCRIgatpuri 422403, Maharashtra
53KYNKalyan Junction (8)  19:00+019:05+05m632359.96410mCRKalyan 421301, Maharashtra
54TNAThane (10)X  19:24+319:25+31m832380.12810mCRThane (West) 400602, Maharashtra
55LTT•Mumbai Lokmanya Tilak Terminus (5)•  20:00+0-532396.6-7mCRMumbai, Maharashtra
Scroll to Top
Scroll to Bottom